This is the latest recevied weather packets stored in our database for station/object K7TSD. If no packets are shown the sender has not sent any weather packets the latest 10 day(s).
| Time | Temp. | Humidity | Pressure | Rain* | Wind** | Luminosity | Snow |
|---|---|---|---|---|---|---|---|
| 1778119449 | 6.11° C | 56% | 1008.9 hPa | 0 mm | - | 7 W/m² | - |
| 1778119146 | 6.11° C | 58% | 1008.9 hPa | 0 mm | - | 11 W/m² | - |
| 1778118844 | 7.78° C | 54% | 1009.1 hPa | 0 mm | - | 15 W/m² | - |
| 1778118541 | 7.78° C | 52% | 1009.1 hPa | 0 mm | - | 21 W/m² | - |
| 1778118237 | 7.78° C | 53% | 1009.1 hPa | 0 mm | - | 26 W/m² | - |
| 1778117934 | 8.33° C | 52% | 1009.1 hPa | 0 mm | - | 32 W/m² | - |
| 1778117631 | 8.89° C | 52% | 1009.2 hPa | 0 mm | - | 40 W/m² | - |
| 1778117328 | 8.89° C | 50% | 1009.1 hPa | 0 mm | - | 49 W/m² | - |
| 1778117023 | 8.89° C | 48% | 1008.9 hPa | 0 mm | - | 55 W/m² | - |
| 1778116721 | 8.89° C | 48% | 1008.9 hPa | 0 mm | - | 72 W/m² | - |
| 1778116418 | 9.44° C | 50% | 1009.3 hPa | 0 mm | - | 92 W/m² | - |
| 1778116112 | 9.44° C | 49% | 1009.3 hPa | 0 mm | - | 101 W/m² | - |
| 1778115808 | 9.44° C | 47% | 1009.3 hPa | 0 mm | - | 95 W/m² | - |
| 1778115506 | 9.44° C | 48% | 1009.4 hPa | 0 mm | - | 117 W/m² | - |
| 1778115202 | 10.56° C | 44% | 1009.4 hPa | 0 mm | - | 136 W/m² | - |
| 1778114899 | 10.56° C | 47% | 1009.4 hPa | 0 mm | - | 147 W/m² | - |
| 1778114595 | 10° C | 45% | 1009.8 hPa | 0 mm | - | 161 W/m² | - |
| 1778114293 | 10.56° C | 45% | 1009.9 hPa | 0 mm | - | 201 W/m² | - |
| 1778113987 | 10° C | 43% | 1009.6 hPa | 0 mm | - | 224 W/m² | - |
| 1778113678 | 10° C | 43% | 1009.8 hPa | 0 mm | - | 239 W/m² | - |
| 1778113373 | 10° C | 43% | 1009.6 hPa | 0 mm | - | 278 W/m² | - |
| 1778113071 | 10.56° C | 42% | 1009.6 hPa | 0 mm | - | 201 W/m² | - |
| 1778112768 | 11.11° C | 42% | 1010 hPa | 0 mm | - | 272 W/m² | - |
| 1778112464 | 11.11° C | 42% | 1009.9 hPa | 0 mm | - | 242 W/m² | - |
| 1778112161 | 11.11° C | 43% | 1009.9 hPa | 0 mm | - | 255 W/m² | - |
* Rain latest hour (hover to see other rain measurements)
** Current wind speed in m/s (hover to see current wind gust speed)